Flag for Spain Weather past 2 weeks in Santander, Spain

Now
52 °F

Passing clouds.


Feels Like: 52 °F
Forecast: 54 / 60 °F
Wind: 2 mph from North

Location: Santander / Parayas

Current Time: Apr 28, 2015 at 7:48:45 AM

Latest Report: Apr 28, 2015 at 7:00 AM


Visibility: N/A

Pressure: 30.18 "Hg

Humidity: 67%

Dew point: 41 °F

Location of SantanderLocation

Historic Weather in Santander — Graph

°F

Santander temperature yesterday

Maximum temperature yesterday: 59 °F (at 1:00 PM)
Minimum temperature yesterday: 52 °F (at 11:00 PM)
Average temperature yesterday: 55 °F

Past Weeks' High & Low Weather Summary

 TemperatureHumidityPressure
High81 °F (Apr 14, 5:30 PM)100% (Apr 16, 5:30 AM)30.30 "Hg (Apr 16, 5:30 AM)
Low46 °F (Apr 19, 5:30 AM)22% (Apr 15, 8:30 AM)29.68 "Hg (Apr 26, 6:00 AM)
Average59 °F75%30.01 "Hg
* Reported Apr 13 7:00 AM — Apr 28 7:00 AM, Santander, Weather by CustomWeather, © 2015

Note: Actual official high and low records may vary slightly from our data, if they occured in-between our weather recording intervals... More about our weather records

Advertising

Santander weather history for previous 24 hours

 ConditionsComfort  
Time TempWeatherWind HumidityBarometerVisibility
7:00 AM
Tue, Apr 28
52 °FPassing clouds.2 mph67%30.18 "HgN/A
6:30 AM52 °FPassing clouds.3 mph67%30.18 "HgN/A
5:30 AM52 °FPassing clouds.2 mph72%30.18 "HgN/A
11:00 PM
Mon, Apr 27
52 °FLight rain. Partly cloudy.2 mph94%30.12 "HgN/A
10:30 PM54 °FPartly cloudy.5 mph88%30.12 "HgN/A
10:00 PM54 °FBroken clouds.6 mph88%30.09 "HgN/A
9:30 PM54 °FPartly sunny.7 mph82%30.09 "HgN/A
9:00 PM54 °FSprinkles. Broken clouds.8 mph88%30.09 "HgN/A
8:30 PM55 °FSprinkles. Partly sunny.8 mph77%30.07 "HgN/A
8:00 PM55 °FPartly sunny.9 mph82%30.07 "HgN/A
7:30 PM57 °FBroken clouds.8 mph77%30.04 "HgN/A
7:00 PM57 °FBroken clouds.8 mph77%30.04 "HgN/A
6:30 PM57 °FBroken clouds.10 mph77%30.04 "HgN/A
6:00 PM55 °FLight rain. Broken clouds.8 mph88%30.01 "HgN/A
5:30 PM55 °FLight rain. Partly sunny.7 mph88%30.01 "HgN/A
5:00 PM54 °FLight rain. Mostly cloudy.7 mph94%30.01 "HgN/A
4:30 PM55 °FLight rain. Mostly cloudy.9 mph88%30.01 "Hg4 mi
4:00 PM55 °FLight rain. Broken clouds.8 mph94%29.98 "HgN/A
3:30 PM55 °FLight rain. Broken clouds.8 mph88%29.98 "HgN/A
3:00 PM57 °FBroken clouds.7 mph88%29.95 "HgN/A
2:30 PM54 °FLight rain. Broken clouds.7 mph94%29.95 "HgN/A
2:00 PM55 °FLight rain. Broken clouds.12 mph88%29.95 "Hg5 mi
1:30 PM57 °FBroken clouds.17 mph82%29.95 "Hg5 mi
1:00 PM59 °FBroken clouds.17 mph82%29.92 "HgN/A
12:30 PM57 °FLight rain. Broken clouds.17 mph82%29.92 "HgN/A
12:00 PM57 °FLight rain. Broken clouds.17 mph82%29.92 "HgN/A
11:30 AM57 °FBroken clouds.16 mph82%29.92 "HgN/A
11:00 AM57 °FBroken clouds.16 mph82%29.89 "HgN/A
10:30 AM57 °FPartly sunny.15 mph82%29.89 "HgN/A
10:00 AM55 °FPartly sunny.15 mph88%29.89 "HgN/A
9:30 AM55 °FLight rain. Partly sunny.13 mph88%29.86 "HgN/A
9:00 AM54 °FLight rain. Broken clouds.16 mph94%29.86 "HgN/A
8:30 AM54 °FLight rain. Broken clouds.13 mph94%29.86 "HgN/A
8:00 AM54 °FLight rain. Partly cloudy.13 mph94%29.86 "HgN/A
7:30 AM54 °FPartly cloudy.12 mph88%29.83 "HgN/A
7:00 AM54 °FLight rain. Mostly cloudy.15 mph88%29.83 "HgN/A
Weather by CustomWeather, © 2015

See weather overviewHow to use our weather pages